DW0552 N. Milford MA US current weather conditions

sailwx.info

Wind from 157 at 0 knots gusting 5

Air temperature -0.0° C
Dewpoint -7.7° C

Last reported at 2019-Dec-08 20:47 UTC.
Time now 2019-Dec-08 21:54 UTC

Location: N 42°11' W 071°32'.
View on Google Maps.

See reports from other nearby stations

  
Tides and Currents Weather Stations Pressure Air Temp Water Temp Dewpoint Dewpoint Depression Visibility Wind Speed Wind Dir Waves Ship Positions
date/time (UTC)wind fromknots sea level pressurealtimeterstation pressurevisibilityair tempwater tempwave heightnotes
2019-Dec-08 20:47 157 0 gusting 5 -0.0
2019-Dec-08 20:32 173 0 gusting 4 0.6
2019-Dec-08 20:22 171 0.6
2019-Dec-08 20:17 173 0 gusting 2 0.6
2019-Dec-08 20:12 176 0 gusting 0 0.6
2019-Dec-08 19:57 155 0.6
2019-Dec-08 19:52 183 1 gusting 6 1.1
2019-Dec-08 19:42 184 0 gusting 2 1.1
2019-Dec-08 19:32 198 1.1
2019-Dec-08 19:12 173 1.1
2019-Dec-08 19:07 157 1.1
2019-Dec-08 19:02 168 0 gusting 6 1.1
2019-Dec-08 18:47 224 1.1
2019-Dec-08 18:42 192 0 gusting 6 1.1
2019-Dec-08 18:37 194 0 gusting 6 1.1
2019-Dec-08 18:32 182 1.1
2019-Dec-08 18:12 181 1 gusting 7 1.1
2019-Dec-08 18:07 152 1.1
2019-Dec-08 18:02 180 0 gusting 5 1.1
2019-Dec-08 17:47 169 1.1
2019-Dec-08 17:27 197 1.1
2019-Dec-08 17:17 175 0 gusting 2 0.6
2019-Dec-08 17:12 176 1 gusting 6 0.6
2019-Dec-08 17:07 190 0 gusting 4 0.6
2019-Dec-08 17:02 164 0.6
2019-Dec-08 16:57 199 0 gusting 2 -0.0
2019-Dec-08 16:42 238 0 gusting 2 -0.0
2019-Dec-08 16:37 175 0 gusting 2 -0.0
2019-Dec-08 16:32 180 0 gusting 2 -0.0
2019-Dec-08 16:27 160 1 gusting 5 -0.0
2019-Dec-08 16:22 171 1 gusting 4 -0.6
2019-Dec-08 16:07 131 -0.6
2019-Dec-08 16:02 162 0 gusting 2 -0.6
2019-Dec-08 15:57 -2.8
2019-Dec-08 15:52 025 -2.8
2019-Dec-08 15:42 177 -2.8
2019-Dec-08 15:37 188 -2.8
2019-Dec-08 15:32 157 0 gusting 5 -2.8
2019-Dec-08 15:27 143 1 gusting 5 -2.8
2019-Dec-08 15:22 172 1 gusting 4 -2.8
2019-Dec-08 15:17 209 -2.8
2019-Dec-08 15:12 213 -2.8
2019-Dec-08 15:07 215 -3.3
2019-Dec-08 14:57 218 -4.4
2019-Dec-08 14:52 217 -5.0
2019-Dec-08 14:47 212 -5.6
2019-Dec-08 14:42 213 -6.1
2019-Dec-08 14:37 213 -6.1
2019-Dec-08 14:32 213 -6.7
2019-Dec-08 14:27 208 -7.2
2019-Dec-08 14:22 212 -7.8
2019-Dec-08 14:17 207 -7.8
2019-Dec-08 14:12 207 -8.3
2019-Dec-08 14:02 207 -8.9
2019-Dec-08 13:57 207 -8.9
2019-Dec-08 13:52 206 -9.4
2019-Dec-08 13:47 206 -9.4
2019-Dec-08 13:42 259 -9.4
2019-Dec-08 13:37 260 -10.0
2019-Dec-08 13:32 260 -10.0
2019-Dec-08 13:22 260 -10.0
2019-Dec-08 13:17 260 -10.6
2019-Dec-08 13:12 259 -10.6
2019-Dec-08 13:07 260 -11.1
2019-Dec-08 12:57 279 -11.1
2019-Dec-08 12:52 279 -11.1
2019-Dec-08 12:37 279 -11.1
2019-Dec-08 12:27 279 -11.1
2019-Dec-08 12:17 279 -11.7
2019-Dec-08 12:12 279 -11.7
2019-Dec-08 11:57 279 -11.1
2019-Dec-08 11:52 279 -11.1
2019-Dec-08 11:42 279 -11.1
2019-Dec-08 11:37 279 -11.1
2019-Dec-08 11:32 279 -11.1
2019-Dec-08 11:27 279 -11.1
2019-Dec-08 11:22 279 -11.1
2019-Dec-08 11:17 279 -11.1
2019-Dec-08 11:12 279 -10.6
2019-Dec-08 11:07 279 -10.6
2019-Dec-08 10:57 279 -10.6
2019-Dec-08 10:52 279 -10.6
2019-Dec-08 10:42 279 -10.6
2019-Dec-08 10:32 279 -10.6
2019-Dec-08 10:12 279 -10.6
2019-Dec-08 10:07 279 -10.6
2019-Dec-08 09:52 279 -10.6
2019-Dec-08 09:47 279 -10.6
2019-Dec-08 09:42 279 -10.6
2019-Dec-08 09:32 279 -10.6
2019-Dec-08 09:27 279 -10.6
2019-Dec-08 09:22 279 -10.6
2019-Dec-08 09:17 279 -10.6
2019-Dec-08 09:12 279 -10.6
2019-Dec-08 09:07 279 -10.6
2019-Dec-08 08:57 279 -10.6
2019-Dec-08 08:52 279 -10.6
2019-Dec-08 08:47 279 -10.6
2019-Dec-08 08:42 279 -10.6
2019-Dec-08 08:37 279 -10.6
2019-Dec-08 08:32 279 -10.6
2019-Dec-08 08:27 279 -10.6
2019-Dec-08 08:22 279 -10.6
2019-Dec-08 08:17 279 -10.6
2019-Dec-08 08:12 279 -10.6
2019-Dec-08 08:07 279 -10.6
2019-Dec-08 08:02 279 -10.6
2019-Dec-08 07:57 279 -10.6
2019-Dec-08 07:52 279 -10.6
2019-Dec-08 07:42 279 -10.6
2019-Dec-08 07:32 279 -10.6
2019-Dec-08 07:27 279 -10.6
2019-Dec-08 07:17 279 -10.6
2019-Dec-08 07:12 279 -10.6
2019-Dec-08 07:07 279 -10.6
2019-Dec-08 07:02 279 -10.6
2019-Dec-08 06:57 279 -10.0
2019-Dec-08 06:47 279 -10.0
2019-Dec-08 06:42 279 -10.0
2019-Dec-08 06:37 279 -10.0
2019-Dec-08 06:22 279 -10.0
2019-Dec-08 06:17 279 -10.0
2019-Dec-08 06:12 279 -10.0
2019-Dec-08 06:02 279 -10.0
2019-Dec-08 05:57 279 -9.4
2019-Dec-08 05:52 279 -9.4
2019-Dec-08 05:42 279 -9.4
2019-Dec-08 05:37 279 -9.4
2019-Dec-08 05:27 279 -9.4
2019-Dec-08 05:22 279 -9.4
2019-Dec-08 05:12 279 -9.4
2019-Dec-08 05:07 279 -9.4
2019-Dec-08 05:02 279 -8.9
2019-Dec-08 04:57 279 -8.9
2019-Dec-08 04:52 279 -8.9
2019-Dec-08 04:47 279 -8.9
2019-Dec-08 04:42 279 -8.9
2019-Dec-08 04:37 279 -8.9
2019-Dec-08 04:32 279 -8.9
2019-Dec-08 04:22 279 -8.9
2019-Dec-08 04:12 279 -8.9
2019-Dec-08 04:07 279 -8.3
2019-Dec-08 03:57 279 -8.3
2019-Dec-08 03:47 279 -8.3
2019-Dec-08 03:32 279 -8.3
2019-Dec-08 03:27 279 -8.3
2019-Dec-08 03:22 279 -8.3
2019-Dec-08 03:17 279 -8.3
2019-Dec-08 03:12 279 -8.3
2019-Dec-08 03:07 279 -8.3
2019-Dec-08 02:57 279 -8.3
2019-Dec-08 02:47 279 -7.8
2019-Dec-08 02:37 279 -7.8
2019-Dec-08 02:27 279 -7.8
2019-Dec-08 02:22 279 -7.8
2019-Dec-08 02:17 279 -7.8
2019-Dec-08 02:12 279 -7.8
2019-Dec-08 02:07 279 -7.8
2019-Dec-08 02:02 279 -7.8
2019-Dec-08 01:52 279 -7.2
2019-Dec-08 01:47 279 -7.2
2019-Dec-08 01:42 279 -7.2
2019-Dec-08 01:37 279 -7.2
2019-Dec-08 01:32 279 -7.2
2019-Dec-08 01:27 279 -7.2
2019-Dec-08 01:22 279 -7.2
2019-Dec-08 01:12 279 -6.7
2019-Dec-08 01:07 279 -6.7
2019-Dec-08 00:57 279 -6.7
2019-Dec-08 00:52 279 -6.7
2019-Dec-08 00:42 279 -6.1
2019-Dec-08 00:32 279 -6.1
2019-Dec-08 00:27 279 -5.6
2019-Dec-08 00:17 279 -5.6
2019-Dec-08 00:12 279 -5.6
2019-Dec-08 00:07 279 -5.0
2019-Dec-07 23:57 279 -5.0
2019-Dec-07 23:52 279 -5.0
2019-Dec-07 23:47 -5.0
2019-Dec-07 23:42 -4.4
2019-Dec-07 23:37 -4.4
2019-Dec-07 23:32 279 -4.4
2019-Dec-07 23:27 279 -4.4
2019-Dec-07 23:22 279 -4.4
2019-Dec-07 23:17 279 -3.9
2019-Dec-07 23:12 279 -3.9
2019-Dec-07 23:07 282 -3.9
2019-Dec-07 23:02 282 -3.9
2019-Dec-07 22:57 284 -3.3
2019-Dec-07 22:47 266 -3.3
2019-Dec-07 22:37 320 -3.3
2019-Dec-07 22:32 317 -2.8
2019-Dec-07 22:22 319 -2.8
2019-Dec-07 22:17 325 -2.8
2019-Dec-07 22:07 325 -2.2
2019-Dec-07 22:02 304 -2.2
2019-Dec-07 21:57 321 -2.2
2019-Dec-07 21:52 273 -2.2
2019-Dec-07 21:47 272 -2.2
2019-Dec-07 21:37 317 0 gusting 2 -1.7
2019-Dec-07 21:32 281 -1.7
2019-Dec-07 21:27 307 -1.7
2019-Dec-07 21:22 291 -1.7
2019-Dec-07 21:17 272 -1.1
2019-Dec-07 21:12 290 -1.1
2019-Dec-07 21:07 294 -1.1
2019-Dec-07 20:52 271 -1.1
2019-Dec-07 20:47 342 0 gusting 6 -1.1
2019-Dec-07 20:37 294 0 gusting 6 -1.1
2019-Dec-07 20:22 315 5 gusting 5 -1.1
2019-Dec-07 20:17 325 1 gusting 6 -1.1
2019-Dec-07 19:57 271 0 gusting 4 -0.6
2019-Dec-07 19:52 313 -0.6
2019-Dec-07 19:47 298 -0.6
2019-Dec-07 19:42 347 1 gusting 6 -0.6
2019-Dec-07 19:32 304 -0.6
2019-Dec-07 19:22 355 -0.6
2019-Dec-07 19:17 271 0 gusting 2 -0.6
2019-Dec-07 19:02 309 3 gusting 8 -0.6
2019-Dec-07 18:57 310 0 gusting 5 -0.6
2019-Dec-07 18:52 339 -0.6
2019-Dec-07 18:42 321 0 gusting 6 -0.6
2019-Dec-07 18:32 328 2 gusting 10 -0.6
2019-Dec-07 18:27 246 -0.6
2019-Dec-07 18:17 167 1 gusting 8 -0.0
2019-Dec-07 18:12 313 2 gusting 10 -0.0
2019-Dec-07 18:02 303 1 gusting 6 -0.0
2019-Dec-07 17:57 270 -0.0
2019-Dec-07 17:52 293 1 gusting 10 -0.0
2019-Dec-07 17:42 339 -0.0
2019-Dec-07 17:37 325 0 gusting 11 -0.0
2019-Dec-07 17:32 334 0 gusting 4 -0.0
2019-Dec-07 17:22 336 0 gusting 6 -0.0
2019-Dec-07 17:07 307 1 gusting 6 -0.6
2019-Dec-07 16:57 299 1 gusting 5 -0.6
2019-Dec-07 16:52 335 2 gusting 6 -0.6
2019-Dec-07 16:42 333 1 gusting 6 -0.6
2019-Dec-07 16:32 304 2 gusting 6 -0.6
2019-Dec-07 16:27 310 2 gusting 6 -0.6
2019-Dec-07 16:22 323 1 gusting 5 -0.6
2019-Dec-07 16:17 314 1 gusting 5 -0.6
2019-Dec-07 16:12 315 2 gusting 6 -0.6
2019-Dec-07 16:07 309 0 gusting 6 -0.6
2019-Dec-07 16:02 314 1 gusting 4 -0.6
2019-Dec-07 15:57 336 0 gusting 6 -0.6
2019-Dec-07 15:52 351 0 gusting 4 -0.6
2019-Dec-07 15:47 259 0 gusting 4 -0.6
2019-Dec-07 15:42 321 -1.1
2019-Dec-07 15:37 312 1 gusting 5 -1.1
2019-Dec-07 15:27 315 1 gusting 6 -1.7
2019-Dec-07 15:22 324 -1.7
2019-Dec-07 15:17 339 0 gusting 6 -1.7
2019-Dec-07 15:12 319 -1.7
2019-Dec-07 15:07 319 0 gusting 4 -1.7
2019-Dec-07 15:02 307 -1.7
2019-Dec-07 14:52 282 1 gusting 7 -2.2
2019-Dec-07 14:47 318 0 gusting 4 -2.2
2019-Dec-07 14:42 266 0 gusting 5 -2.2
2019-Dec-07 14:32 286 0 gusting 6 -2.8
2019-Dec-07 14:27 301 2 gusting 6 -2.8
2019-Dec-07 14:17 295 0 gusting 4 -3.3
2019-Dec-07 14:12 328 -3.3
2019-Dec-07 14:07 315 -3.9
2019-Dec-07 13:52 004 -4.4
2019-Dec-07 13:42 314 0 gusting 2 -5.0
2019-Dec-07 13:37 324 -5.0
2019-Dec-07 13:32 334 0 gusting 2 -5.0
2019-Dec-07 13:27 276 -5.0
2019-Dec-07 13:22 289 -5.6
2019-Dec-07 13:17 280 -5.6
2019-Dec-07 13:12 278 -5.6
2019-Dec-07 13:07 319 -5.6
2019-Dec-07 12:57 305 -5.6
2019-Dec-07 12:42 239 -6.1
2019-Dec-07 12:37 274 -6.1
2019-Dec-07 12:32 279 -6.1
2019-Dec-07 12:22 290 -5.6
2019-Dec-07 12:17 290 -5.6
2019-Dec-07 12:12 290 -5.6
2019-Dec-07 12:02 257 -5.6
2019-Dec-07 11:57 263 -5.6
2019-Dec-07 11:52 304 -5.6
2019-Dec-07 11:47 269 -5.6
2019-Dec-07 11:42 269 -5.6
2019-Dec-07 11:37 269 -5.6
2019-Dec-07 11:32 254 -5.6
2019-Dec-07 11:27 251 -5.6
2019-Dec-07 11:12 311 -5.0
2019-Dec-07 11:02 322 -5.0
2019-Dec-07 10:57 325 -4.4
2019-Dec-07 10:52 325 -4.4
2019-Dec-07 10:47 325 -4.4
2019-Dec-07 10:42 325 -4.4
2019-Dec-07 10:27 311 -3.9
2019-Dec-07 10:22 301 -3.9
2019-Dec-07 10:17 263 -3.9
2019-Dec-07 10:12 282 -3.9
2019-Dec-07 10:07 274 -3.9
2019-Dec-07 10:02 309 -3.9
2019-Dec-07 09:57 276 0 gusting 5 -3.9
2019-Dec-07 09:52 319 -3.9
2019-Dec-07 09:47 255 -3.9
2019-Dec-07 09:32 281 0 gusting 4 -3.9
2019-Dec-07 09:27 312 -3.3
2019-Dec-07 09:17 355 -3.3
2019-Dec-07 09:07 331 -3.3
2019-Dec-07 09:02 305 -3.3
2019-Dec-07 08:57 284 -3.3
2019-Dec-07 08:52 288 -3.3
2019-Dec-07 08:47 284 0 gusting 6 -3.3
2019-Dec-07 08:42 288 -3.3
2019-Dec-07 08:37 275 -2.8
2019-Dec-07 08:32 294 -2.8
2019-Dec-07 08:27 306 -2.8
2019-Dec-07 07:52 292 -2.2
2019-Dec-07 07:37 296 -2.2
2019-Dec-07 07:32 316 0 gusting 2 -2.2
2019-Dec-07 07:17 314 0 gusting 4 -2.2
2019-Dec-07 07:12 321 -2.2
2019-Dec-07 07:02 314 0 gusting 5 -2.2
2019-Dec-07 06:57 266 -2.2
2019-Dec-07 06:52 259 -2.2
2019-Dec-07 06:47 302 -1.7
2019-Dec-07 06:27 315 -1.7
2019-Dec-07 06:22 334 -1.7
2019-Dec-07 06:17 288 -1.7
2019-Dec-07 06:12 283 -1.7
2019-Dec-07 06:07 318 -1.1
2019-Dec-07 06:02 336 0 gusting 2 -1.1
2019-Dec-07 05:57 275 -1.1
2019-Dec-07 05:52 301 0 gusting 4 -1.1
2019-Dec-07 05:42 298 0 gusting 5 -1.1
2019-Dec-07 05:37 286 -1.1
2019-Dec-07 05:32 319 -1.1
2019-Dec-07 05:22 309 -0.6
2019-Dec-07 05:17 304 0 gusting 5 -0.6
2019-Dec-07 05:02 293 2 gusting 6 -0.6
2019-Dec-07 04:57 307 2 gusting 8 -0.6
2019-Dec-07 04:42 309 4 gusting 14 -0.6
2019-Dec-07 04:37 286 1 gusting 10 -0.6
2019-Dec-07 04:22 325 2 gusting 6 -0.0
2019-Dec-07 04:17 306 1 gusting 4 -0.0
2019-Dec-07 04:12 297 1 gusting 7 -0.0
2019-Dec-07 04:07 287 2 gusting 5 -0.0
2019-Dec-07 04:02 307 1 gusting 8 0.6
2019-Dec-07 03:57 315 2 gusting 10 0.6
2019-Dec-07 03:52 305 1 gusting 6 0.6
2019-Dec-07 03:47 299 2 gusting 7 0.6
2019-Dec-07 03:37 323 1 gusting 7 1.1
2019-Dec-07 03:32 305 2 gusting 11 1.1
2019-Dec-07 03:22 301 2 gusting 10 1.1
2019-Dec-07 03:17 302 2 gusting 5 1.1
2019-Dec-07 03:12 298 2 gusting 11 1.1
2019-Dec-07 03:07 310 2 gusting 6 1.1
2019-Dec-07 03:02 316 2 gusting 10 0.6
2019-Dec-07 02:47 308 1 gusting 6 -0.0
2019-Dec-07 02:42 274 0 gusting 10 -0.0
2019-Dec-07 02:32 290 0 gusting 4 -0.6
2019-Dec-07 02:27 315 0 gusting 4 -0.6
2019-Dec-07 02:22 298 -1.1
2019-Dec-07 02:17 278 -1.1
2019-Dec-07 02:12 056 -1.1
2019-Dec-07 02:07 055 -1.1
2019-Dec-07 02:02 055 -0.6
2019-Dec-07 01:52 055 -0.6
2019-Dec-07 01:42 055 -0.6
2019-Dec-07 01:37 055 -0.6
2019-Dec-07 01:32 055 -0.6
2019-Dec-07 01:27 055 -0.6
2019-Dec-07 01:17 055 -0.0
2019-Dec-07 01:07 055 -0.0
2019-Dec-07 01:02 055 -0.0
2019-Dec-07 00:57 055 -0.0
2019-Dec-07 00:47 055 -0.0
2019-Dec-07 00:42 055 -0.0
2019-Dec-07 00:37 055 -0.0
2019-Dec-07 00:27 055 -0.0
2019-Dec-07 00:12 055 -0.0
2019-Dec-07 00:07 055 -0.0
2019-Dec-07 00:02 055 -0.0
2019-Dec-06 23:57 055 -0.0
2019-Dec-06 23:47 055 -0.0
2019-Dec-06 23:42 055 -0.0
2019-Dec-06 23:37 055 -0.0
2019-Dec-06 23:32 055 -0.0
2019-Dec-06 23:22 055 -0.0
2019-Dec-06 23:17 055 -0.0
2019-Dec-06 23:12 055 -0.0
2019-Dec-06 23:02 055 -0.0
2019-Dec-06 22:52 055 -0.0
2019-Dec-06 22:42 055 -0.0
2019-Dec-06 22:27 055 0.6
2019-Dec-06 22:12 055 0.6
2019-Dec-06 22:07 055 0.6
2019-Dec-06 21:57 055 0.6
2019-Dec-06 21:52 055 0.6
2019-Dec-06 21:47 055 0.6
2019-Dec-06 21:42 055 0.6
2019-Dec-06 21:37 055 0.6
2019-Dec-06 21:32 055 1.1
2019-Dec-06 21:22 055 1.1
2019-Dec-06 21:17 055 1.1
2019-Dec-06 21:12 055 1.1
2019-Dec-06 21:02 055 1.1